This demonstration page uses our WeatherBlox Daily Observations layout. Learn more.

Left ArrowRight Arrow

30.21309, -93.2044

Hourly Observations for July 19, 2022

Temp ( °F °C ) Dew Point ( °F °C ) Humidity (%) Winds ( mph kmh ) Pressure ( in mb ) Visibility ( mi km ) Precip ( " mm )
12:15 am 00:15 Clear 83 28.4 75 23.9 77 77 SSW 9 15 29.98 1015 10 16 0.00 0.00
12:35 am 00:35 Clear 83 28.2 75 23.8 77 77 SSW 8 13 29.98 1015 10 16 0.00 0.00
12:55 am 00:55 Clear 83 28.1 74 23.6 77 77 SSW 8 13 29.98 1015 10 16 0.00 0.00
1:15 am 01:15 Clear 82 28 75 23.7 78 78 SSW 7 11 29.98 1015 10 16 0.00 0.00
1:35 am 01:35 Partly Cloudy 82 27.8 75 23.8 79 79 SSW 7 11 29.98 1015 10 16 0.00 0.00
1:55 am 01:55 Partly Cloudy 82 27.8 75 24 80 80 SSW 6 9 29.98 1015 10 16 0.00 0.00
2:15 am 02:15 Mostly Cloudy 83 28.1 76 24.2 79 79 SSW 7 11 29.98 1015 10 16 0.00 0.00
2:35 am 02:35 Partly Cloudy 83 28.3 76 24.4 79 79 SW 8 13 29.97 1015 10 16 0.00 0.00
2:55 am 02:55 Clear 83 28.1 76 24.3 80 80 SSW 8 13 29.97 1015 10 16 0.00 0.00
3:15 am 03:15 Clear 83 28.1 76 24.2 79 79 SW 9 15 29.97 1015 10 16 0.00 0.00
3:35 am 03:35 Clear 83 28.1 75 24.1 79 79 SW 12 19 29.96 1015 10 16 0.00 0.00
3:55 am 03:55 Clear 82 28 75 24.1 79 79 SSW 9 15 29.96 1015 10 16 0.00 0.00
4:15 am 04:15 Clear 82 27.7 75 24.1 81 81 SW 8 13 29.96 1015 10 16 0.00 0.00
4:35 am 04:35 Clear 82 27.8 75 24 80 80 SW 9 15 29.97 1015 10 16 0.00 0.00
4:55 am 04:55 Clear 82 27.8 74 23.5 77 77 SW 7 11 29.97 1015 10 16 0.00 0.00
5:15 am 05:15 Clear 82 27.8 74 23.4 77 77 SW 6 9 29.98 1015 10 16 0.00 0.00
5:35 am 05:35 Partly Cloudy 82 28 73 23 74 74 SW 6 9 29.98 1015 10 16 0.00 0.00
6:00 am 06:00 Mostly Clear 81 27 73 23 79 79 SW 6 9 29.98 1015 10 16 0.00 0.00
6:50 am 06:50 Mostly Sunny 81 27 75 24 84 84 SW 6 9 29.99 1016 10 16 0.00 0.00
7:45 am 07:45 Mostly Sunny 82 28 75 24 79 79 SW 7 11 30.00 1016 10 16 0.00 0.00
8:55 am 08:55 Partly Cloudy 88 31 75 24 66 66 SSW 14 22 30.01 1016 10 16 0.00 0.00
9:47 am 09:47 Mostly Cloudy 88 31 73 23 62 62 SW 14 22 30.01 1016 10 16 0.00 0.00
10:45 am 10:45 Mostly Cloudy 90 32 75 24 63 63 SW 17 28 30.01 1016 10 16 0.00 0.00
11:50 am 11:50 Mostly Cloudy 91 33 75 24 59 59 SW 15 24 30.01 1016 10 16 0.00 0.00
12:48 pm 12:48 Mostly Cloudy 91 33 77 25 63 63 SSW 16 26 29.99 1016 10 16 0.00 0.00
1:55 pm 13:55 Mostly Cloudy 93 34 75 24 56 56 SSW 15 24 29.97 1015 10 16 0.00 0.00
2:49 pm 14:49 Mostly Cloudy 91 33 75 24 59 59 SSW 16 26 29.96 1015 10 16 0.00 0.00
3:52 pm 15:52 Partly Cloudy 91 33 75 24 59 59 SSW 18 30 29.95 1014 10 16 0.00 0.00
4:54 pm 16:54 Partly Cloudy 91 33 75 24 59 59 SSW 20 31 29.95 1014 10 16 0.00 0.00
5:50 pm 17:50 Partly Cloudy 91 33 75 24 59 59 SSW 18 30 29.94 1014 10 16 0.00 0.00
6:57 pm 18:57 Mostly Sunny 88 31 75 24 66 66 SSW 14 22 29.94 1014 10 16 0.00 0.00
7:56 pm 19:56 Partly Cloudy 86 30 73 23 66 66 SSW 12 19 29.94 1014 10 16 0.00 0.00
8:55 pm 20:55 Mostly Clear 84 29 75 24 74 74 SSW 9 15 29.95 1014 10 16 0.00 0.00
9:55 pm 21:55 Mostly Clear 82 28 75 24 79 79 SSW 8 13 29.96 1015 10 16 0.00 0.00
10:15 pm 22:15 Clear 83 28.3 74 23.6 76 76 SSW 9 15 29.96 1015 10 16 0.00 0.00
10:35 pm 22:35 Clear 83 28.3 74 23.6 76 76 SSW 9 15 29.96 1015 10 16 0.00 0.00
10:55 pm 22:55 Clear 83 28.2 75 23.7 77 77 SSW 9 15 29.96 1015 10 16 0.00 0.00
11:15 pm 23:15 Clear 83 28.3 75 23.9 77 77 SSW 9 15 29.97 1015 10 16 0.00 0.00
11:35 pm 23:35 Clear 83 28.3 75 23.8 77 77 SSW 8 13 29.96 1015 10 16 0.00 0.00
11:55 pm 23:55 Clear 83 28.3 75 23.9 77 77 SSW 8 13 29.96 1015 10 16 0.00 0.00

Powered by AerisWeather